Regional Weather Roundup
Issued by NWS Glasgow, MT

Home | Current Version | Previous Version | Text Only | Print | Product List | Glossary On
Versions: 1 2 3 4 5 6 7 8 9 10 11 12 13 14 15 16 17 18 19 20 21 22 23 24 25 26 27
000
ASUS45 KGGW 232015
RWRGGW
HOURLY REGIONAL WEATHER ROUNDUP FOR NORTHEAST MONTANA
NATIONAL WEATHER SERVICE GLASGOW MONTANA
200 PM MDT WED MAY 23 2018

NOTE: "FAIR" INDICATES FEW OR NO CLOUDS BELOW 12,000 FEET WITH NO
SIGNIFICANT WEATHER AND/OR OBSTRUCTIONS TO VISISBILITY.

NORTHEAST MONTANA


CITY           SKY/WX    TMP DP  RH WIND       PRES   REMARKS
GLASGOW        CLOUDY    64  60  87 N13       29.85F
WOLF POINT     CLOUDY    67  61  81 NE7       29.86F
JORDAN           N/A     65  59  81 E8        29.85S
SIDNEY         CLOUDY    70  62  76 SE7       29.85F
GLENDIVE       CLOUDY    71  62  73 CALM      29.85F

FORT PECK REPORTS


CITY           SKY/WX    TMP DP  RH WIND       PRES   REMARKS

SOUTHEAST MONTANA


CITY           SKY/WX    TMP DP  RH WIND       PRES   REMARKS
BILLINGS       PTSUNNY   61  58  90 NE10      29.86F
MILES CITY     MOSUNNY   72  59  63 E5        29.83F
BAKER          MOSUNNY   75  57  53 S17       29.86F
LIVINGSTON     LGT RAIN  56  49  77 SW17      29.90F

CENTRAL MONTANA


CITY           SKY/WX    TMP DP  RH WIND       PRES   REMARKS
HAVRE          CLOUDY    76  50  40 SE13      29.84F
LEWISTOWN      CLOUDY    56  54  93 VRB6      29.91F
GREAT FALLS    CLOUDY    64  52  64 SE9       29.90R
CUT BANK       PTSUNNY   72  41  32 E6        29.88F
HELENA         CLOUDY    62  51  67 E3        29.91R
BUTTE          CLOUDY    61  46  57 SE13      29.92F
BOZEMAN        LGT RAIN  57  52  83 NE3       29.92S

WESTERN MONTANA


CITY           SKY/WX    TMP DP  RH WIND       PRES   REMARKS
MISSOULA       MOSUNNY   72  51  47 VRB3      29.81F
KALISPELL      NOT AVBL

NORTH DAKOTA


CITY           SKY/WX    TMP DP  RH WIND       PRES   REMARKS
WILLISTON      CLOUDY    71  59  65 S13G22    29.88R
DICKINSON      CLOUDY    71  57  61 SE14      29.87F
MINOT          CLOUDY    82  58  43 SE15G22   29.89F
BISMARCK       CLOUDY    77  61  57 SE15      29.89F

SOUTHERN SASKATCHEWAN


CITY           SKY/WX    TMP DP  RH WIND       PRES   REMARKS
REGINA         CLOUDY    81  54  39 E13G21    29.86F
MOOSE JAW      PTSUNNY   81  52  36 SE9G20    29.85F
ESTEVAN        LGT RAIN  72  57  60 S22G36    29.90S
SWIFT CURRENT  PTSUNNY   77  46  33 E12G18    29.86F





USA.gov is the U.S. government's official web portal to all federal, state and local government web resources and services.